RH
100 100 99 91 100 99 73 56 60 67 62 91 100 100 100 100 100 97 90 100 95 76 54 76 86 93 92 96 99 100 50 86 94 94 93 82 100 100 80 95 90 95 96
74 100 100 100 100 95 100 100 100 100 86 100 100 100 94 87 83 83 84 100 100 82 92 88 94 99 100 100 99 100 86 60 41 72 95 85 89 100 84 85 96 100 100
38 37 46 64 66 74 81 78 78 74 65 62 70 65 68 66 57 52 62 56 45 95 98 100 99 96 94 98 100 100 100 90 68 98 80 66 63 75 92 100 100 100 94
33 40 45 42 38 37 31 24 21 20 21 21 22 22 23 22 21 20 17 22 45 44 63 79 71 73 80 76 98 100 100 100 100 95 95 72 76 81 81 92 100 100 100
38 38 38 38 35 34 28 35 40 48 51 49 43 34 30 26 23 22 21 21 20 18 21 31 30 39 51 50 74 86 100 89 69 57 100 99 87 85 93 100 100 94 81
56 47 40 39 43 46 48 46 31 21 26 31 33 34 34 30 25 23 21 20 20 19 18 18 18 17 19 33 45 54 58 83 66 67 80 67 56 64 74 75 84 85 96
53 47 50 50 54 55 50 34 35 36 32 32 34 33 30 27 26 26 25 25 23 22 20 18 17 17 17 17 22 45 50 36 45 67 74 78 71 76 70 70 74 78 84
64 60 51 57 61 63 70 62 47 41 44 44 42 39 34 31 28 25 24 23 22 21 20 19 18 16 15 24 29 20 25 27 42 51 69 73 55 59 79 75 67 72 80
92 57 44 56 82 83 62 63 60 54 51 43 34 27 22 20 18 17 16 16 15 16 16 16 16 16 17 20 21 26 23 28 24 26 38 53 50 57 59 61 64 77 70
54 52 63 71 64 71 82 68 54 44 35 29 24 22 22 21 21 21 21 20 20 18 15 13 13 13 14 16 20 19 18 17 18 18 16 15 19 23 22 24 36 41 80
76 73 76 81 94 79 57 47 38 30 27 26 25 24 26 27 27 27 26 25 24 23 20 18 16 16 18 21 21 20 19 19 17 17 17 16 15 16 15 15 15 19 48
78 87 97 84 63 50 41 34 31 29 27 28 30 30 30 29 28 28 29 30 29 27 24 20 18 18 18 20 22 26 23 20 17 17 16 16 16 15 14 15 16 15 19
94 79 67 53 43 38 34 32 31 31 32 33 34 35 34 34 35 35 33 32 32 33 29 25 25 26 26 25 26 25 26 26 22 18 16 17 17 18 15 14 15 15 14
64 50 43 39 37 36 36 38 38 36 36 39 41 42 41 40 39 37 34 33 37 45 42 42 41 56 65 57 44 41 37 32 29 23 21 19 18 16 15 15 14 14 14
42 41 41 41 38 38 39 40 40 41 42 43 43 43 42 38 34 33 32 34 37 42 44 72 99 95 100 100 100 86 77 82 68 46 31 24 20 19 16 14 13 13 14
43 46 45 42 38 40 41 42 42 45 47 47 46 40 32 29 30 31 33 34 37 39 47 85 100 100 100 99 100 100 100 96 90 73 52 38 30 23 20 17 15 14 14
57 49 44 40 38 43 43 42 45 46 46 46 40 33 29 27 28 30 33 34 36 39 51 85 100 100 100 99 95 89 77 65 61 58 47 32 30 26 20 19 16 15 14
61 50 46 43 47 51 50 48 49 49 45 39 34 28 21 19 20 27 35 38 41 46 76 97 100 100 91 96 96 98 88 73 86 81 51 37 29 25 23 18 18 17 16
45 44 45 48 55 60 56 52 52 52 40 33 27 26 24 21 21 30 41 50 53 56 91 100 100 100 100 100 100 92 81 78 76 60 46 35 28 24 23 22 19 16 16
40 41 43 51 63 67 61 58 61 46 34 29 28 31 29 30 32 43 54 59 58 64 91 100 100 100 100 100 97 91 88 74 61 55 40 33 29 25 23 22 21 19 16
43 42 45 66 67 68 62 64 55 40 32 32 33 32 34 44 53 60 70 100 100 99 98 100 100 100 100 99 88 81 78 64 46 41 37 31 27 25 23 22 21 19 17
44 47 61 72 72 68 66 63 49 37 37 37 36 37 47 64 65 74 86 83 88 94 94 98 99 95 88 79 70 62 48 42 36 32 28 27 25 22 21 21 20 19 18
52 65 72 72 70 76 73 58 46 39 42 44 39 42 62 88 100 100 100 100 98 89 82 76 69 60 52 47 44 43 38 33 29 26 23 20 20 20 18 18 18 18 18
72 74 73 66 64 75 71 55 41 36 41 45 43 57 80 96 100 100 97 95 90 79 73 65 52 45 38 36 36 35 32 27 24 21 17 17 16 14 16 16 15 15 15
75 80 71 57 61 72 63 48 35 33 40 45 57 83 94 96 100 100 91 82 75 75 65 59 53 42 41 40 37 32 22 17 19 17 16 13 11 11 11 12 12 12 12
84 77 64 62 70 71 55 39 34 34 42 56 64 90 100 100 100 94 88 78 79 73 66 63 56 44 41 37 32 25 17 14 12 10 9 9 7 7 8 10 11 12 11
Wind_Speed
27 35 36 39 36 36 35 32 36 42 46 47 42 40 44 47 43 41 41 42 42 43 43 40 34 34 38 42 44 40 44 43 43 40 40 39 34 31 28 27 24 19 18
32 36 39 41 47 49 46 47 53 54 49 52 55 57 56 52 52 57 58 50 44 46 48 50 45 43 40 41 39 42 46 46 48 48 44 41 39 38 35 32 28 28 26
30 33 36 39 41 44 47 50 51 54 54 54 57 58 58 59 59 58 59 60 60 57 56 57 56 57 55 53 48 43 46 47 52 52 49 48 45 40 36 35 33 33 31
41 31 29 30 35 42 45 46 46 49 49 49 50 51 53 53 52 51 52 55 59 61 62 61 61 59 57 56 51 46 43 46 49 53 50 49 47 43 40 39 38 38 37
39 35 37 40 40 39 40 44 48 51 51 51 51 53 53 53 52 52 52 52 54 56 59 62 63 63 63 63 59 60 59 56 53 55 59 55 53 50 48 46 46 41 41
38 43 46 47 45 44 46 49 51 54 55 56 58 59 58 59 60 62 62 61 58 57 59 59 59 60 59 59 61 62 60 61 61 53 49 54 57 59 58 57 54 50 47
39 38 39 42 42 42 43 48 50 52 55 58 58 60 63 63 64 66 66 68 68 68 67 65 63 62 61 61 60 61 60 61 62 59 58 56 51 46 41 40 42 46 45
38 40 42 45 47 47 49 50 52 54 57 59 61 63 65 66 67 68 69 71 73 75 76 76 73 70 68 65 64 65 64 62 59 62 65 61 59 52 49 47 46 38 41
54 48 46 43 46 50 51 52 56 59 62 65 66 66 67 67 67 68 70 71 74 77 79 80 81 80 78 75 72 70 69 67 66 66 64 64 66 68 64 55 56 49 40
48 53 48 48 48 51 55 58 60 63 65 66 66 66 69 70 69 69 69 70 72 75 78 80 80 81 84 82 80 81 81 78 75 72 71 70 70 69 68 61 62 58 49
47 48 49 49 52 56 59 62 65 66 66 68 70 70 70 70 69 70 70 70 71 74 77 79 78 76 76 76 77 82 85 85 83 81 79 75 74 72 69 67 61 61 61
42 45 49 52 55 58 62 63 65 68 70 70 71 70 70 72 71 69 67 66 68 71 75 73 71 72 72 72 73 77 81 84 86 87 86 85 84 81 76 73 69 65 66
45 49 52 55 57 59 62 66 68 69 69 70 71 72 71 71 71 70 69 66 65 64 64 58 54 55 60 65 68 71 74 78 80 84 85 85 86 87 86 82 76 73 69
49 52 53 54 57 61 64 65 68 70 70 71 74 75 77 76 75 73 71 66 58 53 54 46 43 41 42 49 55 60 64 68 72 76 80 82 85 85 88 87 85 80 77
50 51 54 58 61 60 63 65 68 71 72 75 78 81 81 79 75 73 68 63 55 52 49 43 41 39 40 44 45 48 50 55 62 67 71 74 77 80 82 84 86 85 83
52 57 59 58 60 62 65 67 69 70 75 81 86 86 79 71 62 56 54 51 48 47 45 41 41 40 44 44 44 47 52 55 58 62 66 67 69 72 76 78 83 85 85
55 55 57 59 62 64 68 69 70 73 79 83 84 76 65 55 49 44 42 41 40 40 41 45 45 43 42 45 46 49 50 52 55 58 59 59 60 62 68 74 77 81 84
56 56 57 60 63 67 69 73 73 79 81 80 69 60 54 46 40 36 34 34 34 36 39 43 47 48 47 46 49 50 53 52 54 56 57 57 57 59 63 67 72 78 81
57 55 59 63 65 69 71 75 80 82 79 66 55 50 44 39 33 27 27 28 30 33 38 41 43 44 46 49 52 56 55 55 57 58 58 56 55 57 60 63 66 72 79
58 58 62 65 69 73 76 78 83 79 68 55 47 40 36 33 28 23 23 26 29 33 39 42 44 47 50 51 55 57 59 59 59 60 57 54 55 56 60 61 64 68 72
60 60 65 68 72 76 77 81 79 73 57 49 41 33 29 26 24 21 22 21 22 23 29 38 45 49 50 54 57 60 62 62 59 56 54 54 55 56 57 60 62 63 66
61 63 68 72 74 78 79 79 75 65 50 44 36 30 23 21 21 20 21 24 26 29 33 37 42 47 51 55 59 61 60 57 56 55 53 54 55 57 58 59 62 63 63
64 67 69 72 76 77 78 75 71 57 47 41 33 25 19 18 18 18 19 23 27 32 36 40 43 45 49 53 56 58 60 59 58 57 56 54 54 56 58 59 60 62 64
66 69 71 75 76 71 70 74 64 50 43 38 28 21 19 19 20 23 27 29 28 31 34 38 43 47 49 49 51 53 55 55 53 53 52 53 56 55 55 57 59 61 64
69 71 72 72 68 67 69 70 56 44 38 31 23 20 21 21 24 25 25 27 27 31 36 41 44 45 47 48 50 53 53 48 48 48 50 52 52 53 53 55 56 58 61
73 73 70 67 67 68 71 61 50 41 32 25 23 21 22 24 25 26 26 27 31 35 40 44 47 49 51 52 51 52 49 46 44 44 45 48 48 46 46 50 52 54 56
Wind_Direction
246 240 249 255 254 263 256 248 248 252 255 259 255 255 260 255 258 266 265 260 262 266 268 268 270 267 267 266 264 259 255 260 265 263 261 265 264 267 275 275 265 276 273
244 245 248 248 249 251 255 257 257 267 271 262 261 265 268 269 273 273 271 257 252 254 262 265 266 266 269 272 270 263 255 256 258 259 260 260 261 260 266 262 259 267 275
258 253 252 256 258 259 262 265 267 267 267 265 264 264 266 267 270 267 263 264 262 256 250 258 261 263 268 268 267 264 258 256 254 259 256 257 260 257 254 252 259 264 269
256 256 270 271 268 263 262 263 265 267 268 267 267 267 267 266 266 266 265 263 260 260 259 260 262 263 263 262 254 250 261 257 256 256 258 255 254 253 253 253 257 261 267
260 272 281 283 285 279 275 274 275 274 273 273 273 272 272 271 271 270 267 265 263 261 259 259 258 258 257 258 256 253 254 255 261 260 253 253 253 251 252 257 260 260 260
275 283 283 283 284 281 279 280 280 279 278 278 280 279 276 275 275 273 272 269 266 264 261 260 259 257 255 255 257 258 253 252 256 254 252 253 254 254 255 257 262 262 263
277 281 281 282 281 286 286 282 279 278 276 278 278 279 278 277 276 274 272 271 270 270 267 264 262 259 257 255 253 255 257 253 251 250 245 246 249 250 252 254 258 259 260
274 281 293 287 284 287 286 285 283 284 285 285 283 282 280 279 278 276 273 272 270 268 267 266 264 263 261 258 256 254 254 253 251 249 248 247 247 242 249 255 258 263 255
277 281 289 289 286 285 285 287 288 287 287 285 285 285 284 283 282 280 277 274 271 268 265 263 263 263 260 260 259 258 255 251 249 249 251 250 246 247 251 250 256 255 255
264 282 290 292 288 288 289 289 289 289 289 290 290 291 291 289 287 284 281 278 275 273 271 267 263 260 260 258 257 256 255 255 252 250 249 250 251 251 254 251 249 250 247
281 284 289 289 290 291 291 292 293 293 293 294 293 293 292 290 287 285 282 279 277 274 272 270 268 264 260 256 252 252 252 252 251 251 251 250 250 251 250 250 246 243 243
286 287 288 289 292 293 293 293 294 295 296 296 295 294 292 290 288 286 283 282 279 276 275 274 269 263 258 254 251 249 249 251 251 251 250 250 249 250 248 247 246 241 238
286 288 291 292 292 293 293 294 295 297 297 297 297 297 295 293 291 288 285 283 282 280 279 276 266 258 253 250 249 248 249 249 249 250 251 251 250 248 247 245 243 243 239
291 291 291 291 292 295 298 299 300 299 300 299 299 298 297 294 290 287 284 283 280 274 277 271 261 252 252 252 250 249 250 251 252 252 252 250 249 248 247 246 244 240 240
291 292 293 296 297 298 300 301 303 302 301 300 300 300 297 293 289 286 282 279 273 267 266 257 250 249 246 250 253 253 253 253 254 255 255 253 250 247 245 244 243 241 237
295 297 298 297 299 301 303 305 305 304 304 303 303 302 299 295 290 284 279 274 268 263 256 242 242 248 248 250 252 252 253 256 258 260 261 259 255 249 245 242 241 239 237
301 298 298 299 302 304 306 307 306 305 305 305 305 302 299 295 290 283 276 269 263 258 249 237 240 244 247 249 253 255 258 262 264 263 265 264 258 251 244 241 239 237 236
305 304 303 303 305 308 309 310 309 310 310 309 306 301 298 294 287 279 270 264 257 252 244 241 241 247 251 254 256 261 265 266 264 265 268 264 258 251 246 242 238 234 233
307 304 304 305 309 311 311 313 314 314 313 310 304 300 297 293 286 274 263 255 255 249 243 245 248 251 256 258 257 264 269 267 268 269 270 264 257 251 247 244 240 237 234
306 304 307 311 312 313 314 315 316 316 315 309 305 298 293 288 280 264 257 257 259 250 245 247 251 255 259 260 264 268 270 271 270 271 269 261 255 250 248 244 241 238 235
310 309 311 312 314 315 315 315 317 318 314 310 304 297 291 281 271 263 260 262 267 266 259 259 261 264 266 268 268 269 272 275 275 272 265 258 254 249 246 245 242 239 238
311 311 313 314 314 315 316 316 319 318 313 310 302 295 284 273 267 262 263 265 267 266 266 266 266 268 270 273 275 277 278 278 275 273 267 258 253 248 245 242 241 239 235
311 313 314 313 314 314 316 317 319 314 310 309 299 289 273 259 260 261 265 268 272 276 277 279 282 285 285 284 283 280 279 279 276 272 268 262 253 250 247 243 239 236 236
312 313 313 313 314 313 316 318 316 310 305 303 290 279 266 255 258 265 273 280 285 290 294 295 297 296 295 292 288 285 282 279 277 274 269 261 256 250 245 244 240 236 234
313 313 314 315 315 315 318 318 312 308 302 291 275 263 263 262 265 270 277 283 287 291 295 301 307 309 306 301 296 291 288 287 280 273 266 262 257 252 247 244 239 235 234
313 313 314 315 314 316 320 315 309 305 294 279 268 253 258 260 263 275 277 280 288 297 305 308 314 315 313 309 303 297 296 291 282 273 265 261 258 251 245 241 236 233 231